Weather History for La Ceiba, Honduras

Change the Weather History Date:

Thursday, October 25, 2012

  Actual Average Record
Temperature  
Mean Temperature 77 °F -  
Max Temperature 85 °F 81 °F 89 °F (1996)
Min Temperature 68 °F 68 °F 62 °F (2003)
Cooling Degree Days 12    
Growing Degree Days 27 (Base 50)    
Moisture  
Dew Point 71 °F    
Average Humidity 79    
Maximum Humidity 94    
Minimum Humidity 61    
Precipitation  
Precipitation 0.24 in 0.68 in - ()
Sea Level Pressure  
Sea Level Pressure 29.81 in    
Wind  
Wind Speed 5 mph ()    
Max Wind Speed 9 mph    
Max Gust Speed -    
Visibility 6.8 miles    
Events Rain    
Averages and records for this station are not official NWS values.
T = Trace of Precipitation, MM = Missing Value Source: Averaged Metar Reports

Daily Weather History Graph

Daily Weather History Graph

Search for Another Location

Airport:

Trip Planner

Search our weather history database for the weather conditions in past years. The results will help you decide how hot, cold, wet, or windy it might be!

Date:

Astronomy

Oct. 25, 2012 Rise Set
Actual Time 5:41 AM CST 5:20 PM CST
Civil Twilight 5:20 AM CST 5:42 PM CST
Nautical Twilight 4:54 AM CST 6:07 PM CST
Astronomical Twilight 4:29 AM CST 6:33 PM CST
Moon 2:38 PM CST (10/25) 2:11 AM CST (10/25)
Length of Visible Light 12h 22m
Length of Day
11h 38m
Waxing Gibbous, 85% of the Moon is Illuminated
Oct 25
Waxing Gibbous
Oct 29
Full
Nov 6
Last Quarter
Nov 13
New
Nov 20
First Quarter

Hourly Weather History & Observations

Time (CST) Temp. Heat Index Dew Point Humidity Pressure Visibility Wind Dir Wind Speed Gust Speed Precip Events Conditions
12:00 AM 73 °F - 71 °F 89% 29.82 in 7 mi SSW 4.6 mph - -   Haze
12:00 AM 73.4 °F - 69.8 °F 88% 29.80 in 6.2 mi SSW 4.6 mph - N/A   Mostly Cloudy
6:00 AM 74 °F - 70 °F 83% 29.81 in 4 mi WSW 6.9 mph - - Rain Light Rain
6:00 AM 73.4 °F - 69.8 °F 88% 29.80 in 3.7 mi WSW 6.9 mph - N/A Rain Light Rain
7:00 AM 73.4 °F - 71.6 °F 94% 29.83 in 6.2 mi Calm Calm - N/A Rain Light Rain
8:00 AM 75.2 °F - 73.4 °F 94% 29.83 in 6.2 mi SW 6.9 mph - N/A   Mostly Cloudy
9:00 AM 79 °F - 73 °F 77% 29.85 in 6 mi WSW 5.8 mph - -   Haze
9:00 AM 78.8 °F - 73.4 °F 83% 29.83 in 6.2 mi WSW 5.8 mph - N/A   Mostly Cloudy
10:00 AM 82.4 °F 88.2 °F 73.4 °F 74% 29.86 in 6.2 mi SW 9.2 mph - N/A   Mostly Cloudy
11:00 AM 84.2 °F 90.9 °F 73.4 °F 70% 29.83 in 6.2 mi WSW 9.2 mph - N/A   Scattered Clouds
12:00 PM 85 °F - 74 °F 64% 29.82 in 12 mi West 9.2 mph - -   Haze
12:00 PM 84.2 °F 92.3 °F 75.2 °F 74% 29.80 in 6.2 mi West 9.2 mph - N/A   Scattered Clouds
1:00 PM 84.2 °F 92.3 °F 75.2 °F 74% 29.77 in 6.2 mi West 6.9 mph - N/A   Scattered Clouds
2:00 PM 84.2 °F 89.6 °F 71.6 °F 66% 29.77 in 6.2 mi West 9.2 mph - N/A   Scattered Clouds
3:00 PM 84 °F - 72 °F 61% 29.77 in 12 mi West 9.2 mph - -   Haze
3:00 PM 84.2 °F 90.9 °F 73.4 °F 70% 29.77 in 6.2 mi West 9.2 mph - N/A   Scattered Clouds
4:00 PM 84.2 °F 90.9 °F 73.4 °F 70% 29.77 in 6.2 mi WNW 6.9 mph - N/A   Scattered Clouds
5:00 PM 82.4 °F 88.2 °F 73.4 °F 74% 29.77 in 6.2 mi West 4.6 mph - N/A   Partly Cloudy
6:00 PM 78 °F - 73 °F 79% 29.80 in 12 mi SSW 3.5 mph - -   Haze
6:00 PM 78.8 °F - 73.4 °F 83% 29.80 in 6.2 mi SSW 3.5 mph - N/A   Scattered Clouds
7:00 PM 75.2 °F - 71.6 °F 89% 29.80 in 6.2 mi SE 3.5 mph - N/A   Partly Cloudy
8:00 PM 71.6 °F - 68.0 °F 88% 29.83 in - ESE 3.5 mph - N/A   Clear
9:00 PM 71.6 °F - 66.2 °F 83% 29.86 in - South 3.5 mph - N/A   Clear
10:00 PM 69.8 °F - 64.4 °F 83% 29.86 in - Calm Calm - N/A   Clear
11:00 PM 68.0 °F - 62.6 °F 83% 29.86 in 6.2 mi SE 2.3 mph - N/A   Partly Cloudy